"Time","Temp","Dewpoint","Humidity","Pressure","Direction","Speed","Gust","Precip","PrecipRate"
"00:04:58","38.9","35.9","89","30.30","5","0","0","0.00","0.00"
"00:09:59","38.8","35.8","89","30.30","5","0","0","0.00","0.00"
"00:14:59","38.8","36","89.5","30.30","5","0","0","0.00","0.00"
"00:19:59","38.8","36.1","90","30.30","5","0.4","2.3","0.00","0.00"
"00:24:59","38.9","36.2","90","30.30","5","0","1.2","0.00","0.00"
"00:29:59","39.1","36.4","90","30.30","5","0","1","0.00","0.00"
"00:34:56","39.1","36.5","90.3","30.29","5","0","1.2","0.01","0.00"
"00:39:59","39","36.6","91","30.29","5","0","0","0.01","0.01"
"00:44:59","39","36.8","91.6","30.29","5","0","0","0.01","0.01"
"00:49:59","39","36.8","91.6","30.29","5","0","0","0.01","0.01"
"00:54:56","38.9","36.8","91.8","30.29","5","0","0","0.01","0.01"
"00:59:56","38.9","36.8","92","30.29","5","0","0","0.01","0.01"
"01:04:58","38.8","36.5","91","30.29","5","0","0","0.01","0.01"
"01:09:56","38.7","36.4","91.5","30.29","5","0","0","0.01","0.01"
"01:14:56","38.6","36.5","92","30.29","5","0","0","0.01","0.01"
"01:19:56","38.5","36.4","92","30.29","5","0","0","0.01","0.01"
"01:24:56","38.4","36.3","92","30.29","5","0.1","1.2","0.01","0.01"
"01:29:56","38.5","36.6","92.7","30.29","5","0.9","2.3","0.01","0.01"
"01:34:59","38.6","36.8","93.2","30.29","5","0.2","1.2","0.02","0.01"
"01:39:59","38.8","37","93.5","30.29","5","0","1","0.02","0.01"
"01:44:59","38.8","36.9","93","30.29","5","0","1.2","0.02","0.01"
"01:49:58","38.7","36.9","93","30.28","5","0.2","2.3","0.02","0.01"
"01:54:57","38.6","36.8","93","30.28","5","0","0","0.02","0.01"
"01:59:58","38.5","36.7","93","30.29","5","0","0","0.02","0.01"
"02:04:52","38.4","36.6","93","30.29","5","0","0","0.02","0.01"
"02:09:58","38.2","36.4","93","30.29","5","0","0","0.02","0.01"
"02:14:59","38.1","36.3","93","30.29","5","0","0","0.02","0.01"
"02:19:59","38","36.3","93.4","30.29","5","0","0","0.02","0.01"
"02:24:59","38.1","36.5","94","30.29","5","0","0","0.03","0.02"
"02:29:59","38.1","36.5","94","30.29","5","0","0","0.03","0.02"
"02:34:59","38.1","36.5","94","30.29","5","0","0","0.03","0.02"
"02:39:59","38.1","36.5","94","30.29","5","0","0","0.03","0.01"
"02:44:59","38.1","36.5","94","30.29","5","0","0","0.04","0.02"
"02:49:58","38","36.4","94","30.28","5","0","0","0.04","0.02"
"02:54:58","38.1","36.6","94.4","30.28","5","0.4","2.3","0.04","0.02"
"02:59:58","38.5","37.2","95","30.28","5","0.1","1.2","0.04","0.02"
"03:04:57","38.8","37.5","95","30.28","5","0","0","0.05","0.03"
"03:09:56","39","37.7","95","30.28","5","0","0","0.05","0.03"
"03:14:59","39.1","37.8","95","30.28","5","0.2","2.3","0.06","0.03"
"03:19:59","39.2","37.9","95","30.27","5","0","1.2","0.06","0.04"
"03:24:59","39.3","38","95","30.27","5","0.3","2.3","0.06","0.04"
"03:29:58","39.3","38","95","30.27","5","0.1","1.2","0.07","0.04"
"03:34:58","39.4","38.1","95","30.27","5","0.6","2.3","0.07","0.04"
"03:39:57","39.2","37.6","94","30.27","5","0.7","2.3","0.08","0.05"
"03:44:57","39.1","37.5","94","30.27","5","0","0","0.08","0.05"
"03:49:57","39","37.6","94.8","30.27","5","0","0","0.08","0.04"
"03:54:57","39","37.7","95","30.27","5","0","0","0.08","0.04"
"03:59:57","39","37.7","95","30.27","5","0","0","0.08","0.04"
"04:04:59","39","37.7","95","30.27","5","0.1","1.2","0.08","0.04"
"04:09:58","39.1","37.8","95","30.27","5","0.3","1.2","0.09","0.04"
"04:14:57","39.2","37.9","95","30.27","5","0","1.2","0.09","0.04"
"04:19:57","39.1","37.8","95","30.26","5","0","0","0.10","0.04"
"04:24:57","39","37.7","95","30.26","5","0","0","0.10","0.04"
"04:29:57","38.9","37.6","95","30.26","5","0","0","0.10","0.04"
"04:34:56","38.8","37.5","95","30.26","5","0","2","0.10","0.03"
"04:39:56","38.8","37.5","95","30.26","5","1.4","2.3","0.11","0.03"
"04:44:59","38.8","37.5","95","30.27","5","0.8","3.5","0.11","0.03"
"04:49:58","38.8","37.6","95.2","30.27","5","0.2","1.2","0.12","0.04"
"04:54:58","38.9","37.7","95.2","30.27","5","0","0","0.12","0.04"
"04:59:57","38.9","37.6","95","30.27","5","0.1","1.2","0.12","0.04"
"05:04:59","38.8","37.5","95","30.27","5","0","1.2","0.13","0.05"
"05:09:58","38.8","37.5","95","30.27","5","0","0","0.13","0.05"
"05:14:57","38.7","37.4","95","30.27","5","0","0","0.14","0.05"
"05:19:57","38.7","37.4","95","30.27","5","0","1","0.14","0.05"
"05:24:57","38.8","37.7","95.7","30.27","5","0.1","1.2","0.15","0.04"
"05:29:57","38.9","37.8","95.7","30.27","5","0","0","0.15","0.05"
"05:34:56","38.8","37.5","95","30.27","5","0","1","0.15","0.05"
"05:39:56","38.8","37.6","95.2","30.27","5","0","0","0.16","0.06"
"05:44:56","38.9","37.8","95.8","30.27","5","0.2","2.3","0.16","0.05"
"05:49:59","38.9","37.9","96","30.26","5","0","1","0.17","0.06"
"05:54:59","39.1","38.1","96","30.26","5","0.5","2.3","0.17","0.05"
"05:59:59","39.2","38.2","96","30.26","5","0","1","0.18","0.06"
"06:04:57","39.2","38.2","96","30.26","5","0","1.2","0.18","0.06"
"06:09:56","39.2","38.2","96","30.26","5","0","0","0.18","0.05"
"06:14:56","39.2","38.2","96","30.26","5","0","1","0.18","0.05"
"06:19:56","39.3","38.3","96","30.26","5","0","0","0.19","0.05"
"06:24:56","39.3","38.3","96","30.26","5","0","0","0.19","0.05"
"06:29:56","39.3","38.3","96","30.27","5","0","2","0.20","0.05"
"06:34:59","39.4","38.4","96","30.27","5","0.5","2.3","0.20","0.05"
"06:39:59","39.5","38.5","96","30.27","5","0.1","1.2","0.20","0.05"
"06:44:58","39.6","38.6","96","30.27","5","0.5","2.3","0.21","0.05"
"06:49:58","39.7","38.7","96","30.27","5","0.2","2.3","0.21","0.05"
"06:54:59","39.7","38.7","96","30.27","5","0.1","1.2","0.21","0.04"
"06:59:59","39.8","38.8","96","30.27","5","0","0","0.21","0.04"
"07:04:57","39.9","38.9","96","30.27","5","0","1.2","0.22","0.04"
"07:09:56","39.8","38.8","96","30.27","5","0","0","0.22","0.04"
"07:14:56","39.8","38.8","96","30.27","5","0","0","0.22","0.04"
"07:19:56","39.8","38.8","96","30.27","5","0.2","1.2","0.23","0.05"
"07:24:57","40","39","96","30.27","5","0.1","1.2","0.24","0.05"
"07:29:57","40","39","96","30.27","5","0","1.2","0.24","0.05"
"07:34:57","40.1","39.1","96","30.27","5","0","0","0.24","0.04"
"07:39:57","40.1","39.1","96","30.27","5","0","0","0.25","0.05"
"07:44:57","40.1","39.1","96","30.27","5","0","0","0.25","0.05"
"07:49:57","40.2","39.2","96","30.27","5","0.3","2.3","0.26","0.05"
"07:54:57","40.3","39.3","96","30.27","5","0","2.3","0.26","0.05"
"07:59:57","40.4","39.4","96","30.27","5","0","1.2","0.26","0.05"
"08:04:59","40.5","39.4","96","30.27","33","0.2","3","0.26","0.05"
"08:09:57","40.6","39.5","96","30.27","36","0","1.2","0.26","0.04"
"08:14:57","40.6","39.5","96","30.27","36","0","0","0.27","0.05"
"08:19:57","40.7","39.6","96","30.27","36","0","1.2","0.27","0.05"
"08:24:57","40.8","39.7","96","30.27","38","0.4","2.3","0.27","0.04"
"08:29:57","40.9","39.8","96","30.27","133","0.4","3.5","0.28","0.03"
"08:34:56","41","39.9","96","30.27","161","0.9","3.5","0.28","0.04"
"08:39:56","41.1","40","96","30.27","158","0.9","3","0.28","0.04"
"08:44:56","41.3","40.2","96","30.27","166","0.7","3.5","0.28","0.03"
"08:49:56","41.4","40.3","96","30.27","169","0.3","2.3","0.28","0.03"
"08:54:56","41.6","40.5","96","30.27","164","0.9","3.5","0.28","0.02"
"08:59:59","41.6","40.5","96","30.27","153","1.4","3.5","0.29","0.03"
"09:04:57","41.7","40.6","96","30.27","153","1.2","3.5","0.29","0.03"
"09:09:59","41.7","40.6","96","30.27","140","1.4","3.5","0.30","0.03"
"09:14:56","41.8","40.7","96","30.27","140","2.1","4","0.30","0.04"
"09:19:59","41.8","40.7","96","30.27","180","2","4","0.30","0.03"
"09:24:59","41.8","40.7","96","30.27","169","1.7","4","0.30","0.03"
"09:29:59","41.9","40.8","96","30.27","171","1.1","4","0.30","0.03"
"09:34:58","41.9","40.8","96","30.27","174","1.8","4","0.30","0.02"
"09:39:58","42","40.9","96","30.27","174","2","5","0.31","0.03"
"09:44:58","42.1","41","96","30.27","174","2.2","5","0.31","0.03"
"09:49:58","42.2","41.1","96","30.26","191","2.8","6","0.31","0.03"
"09:54:57","42.4","41.3","96","30.26","177","1.7","4.6","0.31","0.03"
"09:59:57","42.6","41.5","96","30.26","177","1.2","3.5","0.31","0.03"
"10:04:59","42.7","41.6","96","30.26","158","1.8","4","0.31","0.02"
"10:09:57","42.8","41.7","96","30.26","148","1.6","4","0.32","0.03"
"10:14:57","43","41.9","96","30.26","161","1.6","4","0.32","0.02"
"10:19:57","43","41.9","96","30.25","163","1.3","3.5","0.32","0.02"
"10:24:57","43.1","42","96","30.25","162","1.6","3.5","0.32","0.02"
"10:29:57","43.4","42.5","96.7","30.25","163","0.4","3.5","0.32","0.02"
"10:34:56","43.5","42.7","97","30.25","163","0.5","3.5","0.32","0.02"
"10:39:56","43.6","42.7","96.5","30.25","164","1.3","3.5","0.32","0.02"
"10:44:59","43.7","42.7","96.2","30.25","164","0.9","4","0.32","0.01"
"10:49:59","43.9","42.9","96.4","30.25","173","2","4","0.32","0.01"
"10:54:59","44","43.1","96.8","30.25","172","2.1","5","0.32","0.01"
"10:59:58","44.1","43.3","97","30.25","173","1.6","5","0.32","0.01"
"11:04:56","44.2","43.2","96.5","30.24","178","2.3","6","0.34","0.02"
"11:09:58","44.2","43.1","96","30.24","182","2.1","5","0.34","0.03"
"11:14:58","44.3","43.2","96","30.24","187","2","4.6","0.34","0.02"
"11:19:56","44.4","43.5","96.5","30.24","205","3.2","6","0.34","0.02"
"11:24:59","44.5","43.5","96.3","30.24","189","2.4","5","0.34","0.02"
"11:29:59","44.5","43.5","96.4","30.24","203","2.7","5","0.34","0.02"
"11:34:58","44.5","43.4","96","30.24","154","1.8","4","0.34","0.02"
"11:39:58","44.6","43.5","96","30.24","190","2.2","5","0.34","0.02"
"11:44:58","44.6","43.7","96.4","30.24","171","1.4","3.5","0.35","0.02"
"11:49:57","44.7","43.9","97","30.22","171","1.4","4","0.35","0.03"
"11:54:57","44.8","43.8","96.2","30.22","192","2.6","6","0.35","0.03"
"11:59:57","44.9","44","96.6","30.22","187","2.7","5.8","0.35","0.03"
"12:04:58","45","44.2","97","30.22","223","1.9","5","0.36","0.03"
"12:09:57","45.1","44.3","97","30.22","176","1.9","4","0.36","0.02"
"12:14:57","45.4","44.6","97","30.22","170","1.8","5","0.36","0.02"
"12:19:56","45.7","44.9","97","30.21","196","2.3","4.6","0.36","0.02"
"12:24:56","45.8","45","97","30.21","179","1.3","3.5","0.36","0.02"
"12:29:56","45.9","45.1","97","30.21","166","1.1","3.5","0.37","0.03"
"12:34:59","46","45.2","97","30.21","166","1.5","3.5","0.38","0.04"
"12:39:56","46.2","45.4","97","30.21","167","1.7","4","0.38","0.04"
"12:44:59","46.2","45.4","97","30.21","171","2.5","5","0.38","0.04"
"12:49:59","46.2","45.4","97","30.20","191","2.5","4.6","0.39","0.03"
"12:54:59","46.2","45.4","97","30.20","192","2.7","5","0.39","0.04"
"12:59:59","46.2","45.3","96.7","30.20","189","1.5","4","0.39","0.04"
"13:04:57","46.4","45.6","97","30.19","184","1.4","3.5","0.39","0.04"
"13:09:59","46.5","45.7","97","30.19","174","1.4","4","0.40","0.04"
"13:14:56","46.5","45.7","97","30.19","171","1.5","3.5","0.40","0.04"
"13:19:55","46.6","45.8","97","30.18","170","1.1","3.5","0.40","0.04"
"13:24:59","46.7","45.9","97","30.18","167","0.8","3.5","0.40","0.04"
"13:29:59","46.8","46","97","30.18","167","1","2.3","0.41","0.04"
"13:34:59","46.9","46.1","97","30.18","168","0.8","2.3","0.41","0.04"
"13:39:59","47","46.2","97","30.18","167","1.1","2.3","0.41","0.03"
"13:44:59","47.1","46.3","97","30.18","167","0.3","3","0.41","0.03"
"13:49:59","47.2","46.4","97","30.16","142","1.2","3.5","0.42","0.04"
"13:54:59","47.3","46.5","97","30.16","127","1","4","0.42","0.03"
"13:59:59","47.4","46.6","97","30.16","150","1.6","5","0.42","0.03"
"14:04:57","47.4","46.6","97","30.15","160","1","3.5","0.42","0.03"
"14:09:59","47.5","46.7","97","30.15","168","0.9","3.5","0.42","0.03"
"14:14:59","47.5","46.7","97","30.15","120","1.3","4","0.42","0.02"
"14:19:59","47.6","46.8","97","30.14","155","1.6","4","0.42","0.02"
"14:24:59","47.7","46.9","97","30.14","167","1.9","5","0.42","0.02"
"14:29:58","47.8","47","97","30.14","152","1.7","6","0.42","0.02"
"14:34:58","47.9","47.1","97","30.14","172","2.6","6","0.42","0.01"
"14:39:58","47.9","47.1","97","30.14","153","1.8","4","0.42","0.01"
"14:44:58","47.9","47.1","97","30.14","158","1.9","5","0.42","0.01"
"14:49:57","48","47.2","97","30.13","151","1.9","4","0.42","0.01"
"14:54:57","48","47.2","97","30.13","148","1.6","4","0.42","0.00"
"14:59:57","48","47.2","97","30.13","162","2.4","6","0.42","0.00"
"15:04:58","48.1","47.3","97","30.13","170","2","5.8","0.42","0.00"
"15:09:57","48.1","47.3","97","30.13","163","2.4","6","0.42","0.00"
"15:14:56","48.2","47.4","97","30.13","162","2.7","6","0.42","0.00"
"15:19:56","48.3","47.5","97","30.12","153","2.6","7","0.42","0.00"
"15:24:56","48.4","47.6","97","30.12","152","2","5","0.42","0.00"
"15:29:56","48.4","47.6","97","30.12","157","2.3","5","0.42","0.00"
"15:34:56","48.5","47.7","97","30.12","138","1.4","3.5","0.42","0.00"
"15:39:56","48.5","47.7","97","30.12","169","2.1","5","0.42","0.00"
"15:44:56","48.6","47.8","97","30.12","192","1.4","5","0.42","0.00"
"15:49:59","48.6","47.8","97","30.12","166","1.5","4","0.42","0.00"
"15:54:59","48.6","47.8","97","30.12","180","2.2","5","0.42","0.00"
"15:59:59","48.7","47.9","97","30.12","129","1.3","4","0.42","0.00"
"16:04:58","48.7","47.9","97","30.11","141","2","5","0.42","0.00"
"16:09:56","48.8","48","97","30.11","159","2","5","0.42","0.00"
"16:14:57","48.9","48.1","97","30.11","178","1.9","3.5","0.42","0.00"
"16:19:58","48.9","48.1","97","30.11","172","2.1","5","0.43","0.01"
"16:24:58","48.9","48.1","97","30.11","141","2.3","5","0.43","0.01"
"16:29:57","48.9","48.1","97","30.11","145","2.4","6","0.43","0.01"
"16:34:56","49","48.2","97","30.10","154","2.1","6","0.43","0.01"
"16:39:56","49","48.2","97","30.10","144","2.3","6","0.43","0.01"
"16:44:56","49","48.2","97","30.10","158","1.5","5","0.43","0.01"
"16:49:59","49","48.2","97","30.10","179","1.4","4","0.43","0.01"
"16:54:59","48.9","48.1","97","30.10","168","1.9","5","0.43","0.01"
"16:59:59","49","48.2","97","30.10","167","1.9","4","0.43","0.01"
"17:04:58","49","48.2","97","30.09","136","1.8","5","0.43","0.01"
"17:09:56","49","48.2","97","30.09","139","0.8","4","0.43","0.01"
"17:14:56","49","48.2","97","30.10","144","1.2","3.5","0.43","0.01"
"17:19:56","49","48.2","97","30.10","155","2.1","5","0.43","0.01"
"17:24:56","49","48.2","97","30.10","142","1.2","3.5","0.43","0.00"
"17:29:57","49","48.2","97","30.10","144","1.1","5","0.43","0.00"
"17:34:56","48.9","48.1","97","30.09","121","1.9","5","0.43","0.00"
"17:39:57","49","48.2","97","30.09","151","2","6","0.43","0.00"
"17:44:57","49","48.2","97","30.09","158","1.8","6","0.43","0.00"
"17:49:57","49","48.2","97","30.09","159","2.2","4.6","0.43","0.00"
"17:54:58","49","48.2","97","30.09","181","1.6","5","0.43","0.00"
"17:59:58","49","48.2","97","30.09","154","2.6","5","0.43","0.00"
"18:04:56","49","48.2","97","30.09","185","1.9","5","0.43","0.00"
"18:09:58","49","48.2","97","30.09","157","1.9","4","0.44","0.01"
"18:14:58","49","48.2","97","30.09","110","0.8","4","0.44","0.01"
"18:19:58","49","48.2","97","30.07","114","0.9","3.5","0.44","0.01"
"18:24:57","48.9","48.1","97","30.07","203","2.4","5","0.45","0.02"
"18:29:57","48.9","48.1","97","30.07","157","0.9","3.5","0.45","0.02"
"18:34:56","48.9","48.1","97","30.07","158","0.5","3","0.46","0.03"
"18:39:56","48.9","48.1","97","30.07","155","1","3.5","0.46","0.03"
"18:44:56","48.9","48.1","97","30.07","155","1.1","3.5","0.47","0.03"
"18:49:59","48.9","48.1","97","30.07","155","0.9","3.5","0.47","0.04"
"18:54:59","48.9","48.1","97","30.07","156","0.9","3.5","0.48","0.04"
"18:59:59","48.9","48.1","97","30.07","131","1.5","6","0.48","0.05"
"19:04:57","48.9","48.1","97","30.05","129","2","4","0.48","0.05"
"19:09:59","48.9","48.1","97","30.05","126","2.6","5","0.48","0.05"
"19:14:59","48.9","48.1","97","30.05","179","2","5","0.48","0.04"
"19:19:59","48.9","48.1","97","30.05","191","1.7","5","0.49","0.05"
"19:24:59","48.9","48.1","97","30.05","177","1.4","4.6","0.49","0.05"
"19:29:58","48.8","48","97","30.05","187","2.1","5","0.49","0.04"
"19:34:59","48.8","48","97","30.04","187","1.5","4","0.49","0.04"
"19:39:58","48.8","48","97.2","30.04","175","1.6","5","0.49","0.03"
"19:44:58","48.8","48.2","97.8","30.05","175","1.7","4","0.49","0.03"
"19:49:59","48.7","48","97.2","30.05","177","1.1","4","0.49","0.02"
"19:54:59","48.6","48.1","97.8","30.05","185","2","4","0.49","0.02"
"19:59:59","48.6","48.1","98","30.05","186","1.4","4","0.49","0.01"
"20:04:57","48.7","48.2","98","30.04","186","0.7","3","0.49","0.01"
"20:09:59","48.7","48.2","98","30.04","186","1.1","3.5","0.49","0.01"
"20:14:59","48.7","48.2","98","30.04","186","0.9","3.5","0.49","0.01"
"20:19:56","48.7","48.2","98","30.04","186","0.1","2.3","0.49","0.01"
"20:24:56","48.7","48.2","98","30.04","186","0.1","1.2","0.49","0.00"
"20:29:56","48.6","48","97.7","30.04","186","0","1","0.49","0.00"
"20:34:56","48.6","48","97.6","30.03","186","0.4","1.2","0.49","0.00"
"20:39:56","48.5","47.7","97.3","30.03","186","0.6","2.3","0.49","0.00"
"20:44:57","48.4","47.6","97","30.03","186","0.3","2.3","0.49","0.00"
"20:49:57","48.4","47.9","97.8","30.03","186","0","1.2","0.49","0.00"
"20:54:57","48.5","48","98","30.03","186","0","1.2","0.49","0.00"
"20:59:57","48.6","48.1","98","30.03","182","0.4","2.3","0.49","0.00"
"21:04:59","48.7","48.2","98","30.02","165","0.9","3.5","0.49","0.00"
"21:09:57","48.8","48.3","98","30.02","154","0.9","3.5","0.49","0.00"
"21:14:58","48.9","48.4","98","30.02","155","0.4","2.3","0.49","0.00"
"21:19:58","48.9","48.4","98","30.01","155","0.3","2.3","0.49","0.00"
"21:24:58","48.8","48.3","98","30.01","154","0.6","2.3","0.49","0.00"
"21:29:58","48.8","48.3","98","30.01","154","0.4","2.3","0.49","0.00"
"21:34:58","48.8","48.3","98","30.00","155","0.1","1.2","0.49","0.00"
"21:39:59","48.8","48.3","98","30.00","155","0.1","2.3","0.49","0.00"
"21:44:59","48.8","48.3","98","30.00","155","0","0","0.49","0.00"
"21:49:55","48.8","48.3","98","30.00","155","0","0","0.49","0.00"
"21:54:56","48.7","48.2","98","30.00","155","0","0","0.49","0.00"
"21:59:56","48.7","48.2","98","30.00","155","0","0","0.49","0.00"
"22:04:55","48.8","48.3","98","29.99","154","0.2","2.3","0.49","0.00"
"22:09:57","48.9","48.4","98","29.99","154","0.5","2.3","0.49","0.00"
"22:14:57","48.9","48.4","98","30.00","155","0.3","3.5","0.49","0.00"
"22:19:57","48.7","48.1","97.6","30.00","227","1.9","5","0.49","0.00"
"22:24:57","48.6","48","97.7","30.00","263","2.6","5","0.49","0.00"
"22:29:57","48.5","48","98","30.00","142","2.1","5","0.49","0.00"
"22:34:57","48.5","48","98","30.00","231","2.4","6","0.49","0.00"
"22:39:57","48.7","48.2","98","30.00","186","2.3","5","0.49","0.00"
"22:44:57","49","48.5","98","30.00","176","1.5","4","0.49","0.00"
"22:49:57","49.3","48.8","98","29.99","177","1.5","3.5","0.49","0.00"
"22:54:57","49.5","49","98","29.99","165","1.8","6","0.49","0.00"
"22:59:57","49.8","49.3","98","29.99","213","2.3","5.8","0.49","0.00"
"23:04:59","49.9","49.4","98","29.99","187","1.1","4","0.49","0.00"
"23:09:57","50.1","49.6","98","29.99","207","2.1","5","0.49","0.00"
"23:14:57","50.3","49.8","98","29.99","161","1.6","4","0.49","0.00"
"23:19:57","50.5","50","98","29.97","142","0.7","3.5","0.49","0.00"
"23:24:58","50.6","50.1","98","29.97","171","2","5","0.49","0.00"
"23:29:58","50.7","50.2","98.2","29.97","187","2","4","0.49","0.00"
"23:34:57","50.7","50.2","98","29.96","209","2.1","4","0.49","0.00"
"23:39:58","50.8","50.3","98","29.96","232","1.5","5","0.49","0.00"
"23:44:58","50.8","50.3","98","29.96","175","2.3","6","0.49","0.00"
"23:49:58","51","50.5","98","29.95","191","2.1","6","0.49","0.00"
"23:54:58","51","50.5","98","29.95","193","2","4","0.49","0.00"
"23:59:58","51","50.5","98","29.95","169","2.8","5","0.49","0.00"
